Regional Weather Roundup
Issued by NWS Portland, ME

Current Version | Previous Version | Text Only | Print | Product List | Glossary Off
Versions: 1 2 3 4 5 6 7 8 9 10 11 12 13 14 15 16 17 18 19 20 21 22 23 24 25 26 27 28 29 30 31 32 33 34 35 36 37 38 39 40 41 42 43 44 45 46 47 48 49 50
000 ASUS41 KGYX 232005 RWRGYX WEATHER ROUNDUP FOR MAINE AND NEW HAMPSHIRE NATIONAL WEATHER SERVICE GRAY ME 400 PM EDT FRI JUN 23 2017 MEZ002-005-006-010-012-015-018-020-021-024-026-027-029-232100- MAINE CITY SKY/WX TMP DP RH WIND PRES REMARKS PORTLAND MOSUNNY 74 67 78 S8 29.68F SANFORD MOSUNNY 79 69 71 S7G17 29.66F BAR HARBOR CLOUDY 67 61 81 VRB3 29.71F WISCASSET MOSUNNY 71 66 84 VRB5 29.70F ROCKLAND CLOUDY 62 60 93 S7 29.71S FOG FRYEBURG CLOUDY 81 68 64 SE8 29.65F LEWISTONAUBURN N/A 77 66 68 S10G17 29.67F AUGUSTA SUNNY 76 64 66 S10 29.67F WATERVILLE SUNNY 77 67 71 VRB6 29.65F BANGOR CLOUDY 71 62 73 S12 29.68F GREENVILLE N/A 63 63 100 CALM 29.68F MILLINOCKET CLOUDY 66 64 93 E3 29.70F HOULTON LGT RAIN 66 63 90 VRB5 29.69F PRESQUE ISLE LGT RAIN 64 60 87 S10 29.69F FRENCHVILLE CLOUDY 63 55 75 S9 29.66F CARIBOU LGT RAIN 65 59 81 S10 29.67F $$ NHZ002-005-008-009-011-012-014-232100- NEW HAMPSHIRE CITY SKY/WX TMP DP RH WIND PRES REMARKS PORTSMOUTH PTSUNNY 76 69 79 SE9 29.63F ROCHESTER LGT RAIN 77 68 73 SE8G18 29.65F NASHUA PTSUNNY 86 70 58 SW7G17 29.63F HX 90 MANCHESTER CLOUDY 88 66 48 S14 29.61S HX 90 CONCORD PTSUNNY 84 72 67 SE6 29.62F LACONIA PTSUNNY N/A N/A N/A NE6 29.64F PLYMOUTH FAIR 82 68 63 E5 29.61F BERLIN CLOUDY 80 66 62 S8 29.63F WHITEFIELD SUNNY 84 66 54 VRB6 29.62F JAFFREY PTSUNNY 87 62 43 SW12G20 29.66F KEENE MOSUNNY 87 67 51 S10G21 29.61F HX 90 LEBANON MOSUNNY 86 67 52 S17G23 29.58F MT WASHINGTON FOG 55 55 100 SW38G46 N/A VSB 1/16 $$ VTZ005-007-008-232100- VERMONT CITY SKY/WX TMP DP RH WIND PRES REMARKS ST JOHNSBURY N/A 81 69 67 MISG 29.57F MONTPELIER RAIN 74 71 91 CALM 29.66S FOG BURLINGTON PTSUNNY 78 72 81 S10 29.56F $$ MAZ007-012-024-CTZ003-RIZ002-NYZ038-NYZ072-232100- SOUTHERN NEW ENGLAND AND NY CITY SKY/WX TMP DP RH WIND PRES REMARKS BOSTON PTSUNNY 85 65 51 S21 29.65F WORCESTER CLOUDY 84 60 44 S15 29.68F NANTUCKET CLOUDY 68 66 93 S15G23 29.77F PROVIDENCE CLOUDY 83 71 67 S13G22 29.69F HARTFORD PTSUNNY 85 70 60 S14 29.63F ALBANY PTSUNNY 84 66 54 S16G30 29.58F NEW YORK CITY CLOUDY 84 72 67 SW17G23 29.67F $$ ANZ081-ANZ082-ANZ150-NHZ014-MEZ023>029-232100- COASTAL MARINE OBSERVATIONS STATION/POSITION TIME TEMP WIND PRES WAVE AIR SEA DIR/SP/G HT/PER (UTC) (F) (DEG/KT/KT) (MB) (FT/S) MATINICUS ROCK 1900 57 160/ 9/ 10 1006.1F ISLE OF SHOALS 1900 72 230/ 14/ 18 1006.2R JEFFREYS LEDGE 1906 60 N/A 2/ 4 CASHES LEDGE BUO 1850 65 60 1006.5 2/ 4 GEORGES BANK BUO 1850 59 55 1012.1 3/ 7 $$ .............KEY.............. WCI - WIND CHILL TC - TEMPERATURE IN CELSIUS VSB - VISIBILITY IN MILES HX - HEAT INDEX FAIR- INDICATES FEW OR NO CLOUDS BELOW 12,000 FT, WITH NO SIGNIFICANT WEATHER AND/OR OBSTRUCTIONS TO VISIBILITY.

USA.gov is the U.S. government's official web portal to all federal, state and local government web resources and services.